Time,TemperatureF,DewpointF,PressureIn,WindDirection,WindDirectionDegrees,WindSpeedMPH,WindSpeedGustMPH,Humidity,HourlyPrecipIn,Conditions,Clouds,dailyrainin,SoftwareType,DateUTC
2013-01-06 00:01:00,49.8,46.0,30.49,SSW,213,4.0,-999.0,85,-99.99,,,0.00,weatherlink.com 1.10,2013-01-06 00:01:00,
2013-01-06 00:18:00,49.6,45.0,30.48,SSW,213,1.0,-999.0,85,-99.99,,,0.00,weatherlink.com 1.10,2013-01-06 00:18:00,
2013-01-06 00:31:00,49.5,45.0,30.48,SSW,212,1.0,-999.0,85,-99.99,,,0.00,weatherlink.com 1.10,2013-01-06 00:31:00,
2013-01-06 00:46:00,49.2,45.0,30.48,SSW,212,0.0,-999.0,85,-99.99,,,0.00,weatherlink.com 1.10,2013-01-06 00:46:00,
2013-01-06 01:01:00,49.0,45.0,30.48,SSW,212,3.0,-999.0,86,-99.99,,,0.00,weatherlink.com 1.10,2013-01-06 01:01:00,
2013-01-06 01:16:00,48.9,45.0,30.48,SSW,209,2.0,-999.0,86,-99.99,,,0.00,weatherlink.com 1.10,2013-01-06 01:16:00,
2013-01-06 01:31:00,49.1,45.0,30.48,SSW,209,0.0,-999.0,86,-99.99,,,0.00,weatherlink.com 1.10,2013-01-06 01:31:00,
2013-01-06 01:46:00,49.1,45.0,30.49,SSW,209,0.0,-999.0,86,-99.99,,,0.00,weatherlink.com 1.10,2013-01-06 01:46:00,
2013-01-06 02:01:00,49.1,45.0,30.48,SSW,209,2.0,-999.0,87,-99.99,,,0.00,weatherlink.com 1.10,2013-01-06 02:01:00,
2013-01-06 02:16:00,49.0,45.0,30.48,SSW,209,0.0,-999.0,87,-99.99,,,0.00,weatherlink.com 1.10,2013-01-06 02:16:00,
2013-01-06 02:31:00,48.9,45.0,30.48,SSW,209,0.0,-999.0,87,-99.99,,,0.00,weatherlink.com 1.10,2013-01-06 02:31:00,
2013-01-06 02:46:00,48.7,45.0,30.48,SSW,209,0.0,-999.0,86,-99.99,,,0.00,weatherlink.com 1.10,2013-01-06 02:46:00,
2013-01-06 03:01:00,48.7,45.0,30.48,SSW,209,6.0,-999.0,87,-99.99,,,0.00,weatherlink.com 1.10,2013-01-06 03:01:00,
2013-01-06 03:16:00,48.6,45.0,30.48,SSW,209,6.0,-999.0,86,-99.99,,,0.00,weatherlink.com 1.10,2013-01-06 03:16:00,
2013-01-06 03:31:00,48.5,45.0,30.47,SSW,209,0.0,-999.0,86,-99.99,,,0.00,weatherlink.com 1.10,2013-01-06 03:31:00,
2013-01-06 03:46:00,48.2,44.0,30.47,SSW,209,0.0,-999.0,86,-99.99,,,0.00,weatherlink.com 1.10,2013-01-06 03:46:00,
2013-01-06 04:01:00,48.4,44.0,30.47,SSW,209,3.0,-999.0,86,-99.99,,,0.00,weatherlink.com 1.10,2013-01-06 04:01:00,
2013-01-06 04:16:00,48.5,45.0,30.46,SSW,209,3.0,-999.0,86,-99.99,,,0.00,weatherlink.com 1.10,2013-01-06 04:16:00,
2013-01-06 04:31:00,48.3,44.0,30.46,SSW,209,0.0,-999.0,86,-99.99,,,0.00,weatherlink.com 1.10,2013-01-06 04:31:00,
2013-01-06 04:46:00,48.2,44.0,30.46,SSW,209,1.0,-999.0,86,-99.99,,,0.00,weatherlink.com 1.10,2013-01-06 04:46:00,
2013-01-06 05:16:00,48.2,44.0,30.45,SSW,209,0.0,-999.0,86,-99.99,,,0.00,weatherlink.com 1.10,2013-01-06 05:16:00,
2013-01-06 05:31:00,48.3,44.0,30.45,SSW,209,0.0,-999.0,86,-99.99,,,0.00,weatherlink.com 1.10,2013-01-06 05:31:00,
2013-01-06 05:46:00,48.5,45.0,30.45,SSW,209,0.0,-999.0,86,-99.99,,,0.00,weatherlink.com 1.10,2013-01-06 05:46:00,
2013-01-06 06:01:00,48.6,45.0,30.44,SSW,209,0.0,-999.0,86,-99.99,,,0.00,weatherlink.com 1.10,2013-01-06 06:01:00,
2013-01-06 06:16:00,48.9,45.0,30.44,SSW,209,7.0,-999.0,86,-99.99,,,0.00,weatherlink.com 1.10,2013-01-06 06:16:00,
2013-01-06 06:31:00,49.1,45.0,30.44,SSW,208,6.0,-999.0,86,-99.99,,,0.00,weatherlink.com 1.10,2013-01-06 06:31:00,
2013-01-06 06:46:00,49.2,45.0,30.44,SSW,206,1.0,-999.0,86,-99.99,,,0.00,weatherlink.com 1.10,2013-01-06 06:46:00,
2013-01-06 07:01:00,49.3,45.0,30.44,SSW,205,1.0,-999.0,86,-99.99,,,0.00,weatherlink.com 1.10,2013-01-06 07:01:00,
2013-01-06 07:16:00,49.5,46.0,30.44,South,186,2.0,-999.0,87,-99.99,,,0.00,weatherlink.com 1.10,2013-01-06 07:16:00,
2013-01-06 07:31:00,49.7,46.0,30.44,South,184,6.0,-999.0,87,-99.99,,,0.00,weatherlink.com 1.10,2013-01-06 07:31:00,
2013-01-06 07:46:00,49.9,46.0,30.44,South,182,9.0,-999.0,87,-99.99,,,0.00,weatherlink.com 1.10,2013-01-06 07:46:00,
2013-01-06 08:01:00,49.8,46.0,30.44,South,190,6.0,-999.0,87,-99.99,,,0.00,weatherlink.com 1.10,2013-01-06 08:01:00,
2013-01-06 08:16:00,49.7,46.0,30.44,SSW,193,8.0,-999.0,87,-99.99,,,0.00,weatherlink.com 1.10,2013-01-06 08:16:00,
2013-01-06 08:31:00,49.6,46.0,30.43,South,188,5.0,-999.0,87,-99.99,,,0.00,weatherlink.com 1.10,2013-01-06 08:31:00,
2013-01-06 08:46:00,49.7,46.0,30.43,SSW,193,3.0,-999.0,87,-99.99,,,0.00,weatherlink.com 1.10,2013-01-06 08:46:00,
2013-01-06 09:01:00,49.8,46.0,30.43,SSW,193,5.0,-999.0,87,-99.99,,,0.00,weatherlink.com 1.10,2013-01-06 09:01:00,
2013-01-06 09:16:00,49.8,46.0,30.43,SSW,206,8.0,-999.0,88,-99.99,,,0.00,weatherlink.com 1.10,2013-01-06 09:16:00,
2013-01-06 09:31:00,49.7,46.0,30.43,SSW,192,3.0,-999.0,88,-99.99,,,0.00,weatherlink.com 1.10,2013-01-06 09:31:00,
2013-01-06 09:46:00,49.7,46.0,30.43,SSW,198,1.0,-999.0,88,-99.99,,,0.01,weatherlink.com 1.10,2013-01-06 09:46:00,
2013-01-06 10:01:00,49.6,46.0,30.44,SSW,208,6.0,-999.0,88,-99.99,,,0.01,weatherlink.com 1.10,2013-01-06 10:01:00,
2013-01-06 10:16:00,49.6,46.0,30.44,SSW,196,4.0,-999.0,88,-99.99,,,0.01,weatherlink.com 1.10,2013-01-06 10:16:00,
2013-01-06 10:31:00,49.6,46.0,30.44,SSW,202,2.0,-999.0,88,-99.99,,,0.01,weatherlink.com 1.10,2013-01-06 10:31:00,
2013-01-06 10:46:00,49.7,46.0,30.43,SSW,213,4.0,-999.0,88,-99.99,,,0.01,weatherlink.com 1.10,2013-01-06 10:46:00,
2013-01-06 11:01:00,49.8,46.0,30.43,South,189,3.0,-999.0,88,-99.99,,,0.01,weatherlink.com 1.10,2013-01-06 11:01:00,
2013-01-06 11:16:00,49.7,46.0,30.43,SSW,192,9.0,-999.0,88,-99.99,,,0.01,weatherlink.com 1.10,2013-01-06 11:16:00,
2013-01-06 11:31:00,49.7,46.0,30.42,SSW,196,6.0,-999.0,88,-99.99,,,0.01,weatherlink.com 1.10,2013-01-06 11:31:00,
2013-01-06 11:46:00,49.8,46.0,30.41,South,174,9.0,-999.0,88,-99.99,,,0.01,weatherlink.com 1.10,2013-01-06 11:46:00,
2013-01-06 12:01:00,49.8,46.0,30.41,South,184,10.0,-999.0,88,-99.99,,,0.01,weatherlink.com 1.10,2013-01-06 12:01:00,
2013-01-06 12:16:00,49.9,47.0,30.40,South,185,3.0,-999.0,88,-99.99,,,0.01,weatherlink.com 1.10,2013-01-06 12:16:00,
2013-01-06 12:31:00,49.8,46.0,30.40,South,190,9.0,-999.0,88,-99.99,,,0.01,weatherlink.com 1.10,2013-01-06 12:31:00,
2013-01-06 12:46:00,49.8,46.0,30.39,SSW,207,2.0,-999.0,88,-99.99,,,0.01,weatherlink.com 1.10,2013-01-06 12:46:00,
2013-01-06 13:01:00,49.8,46.0,30.39,SSW,200,4.0,-999.0,88,-99.99,,,0.01,weatherlink.com 1.10,2013-01-06 13:01:00,
2013-01-06 13:16:00,49.8,46.0,30.39,South,188,1.0,-999.0,88,-99.99,,,0.01,weatherlink.com 1.10,2013-01-06 13:16:00,
2013-01-06 13:31:00,49.8,46.0,30.39,SSW,197,3.0,-999.0,88,-99.99,,,0.01,weatherlink.com 1.10,2013-01-06 13:31:00,
2013-01-06 13:46:00,49.8,46.0,30.38,SSW,192,1.0,-999.0,88,-99.99,,,0.01,weatherlink.com 1.10,2013-01-06 13:46:00,
2013-01-06 14:01:00,49.7,46.0,30.38,SSW,196,2.0,-999.0,88,-99.99,,,0.01,weatherlink.com 1.10,2013-01-06 14:01:00,
2013-01-06 14:16:00,49.9,47.0,30.37,South,190,5.0,-999.0,88,-99.99,,,0.00,weatherlink.com 1.10,2013-01-06 14:16:00,
2013-01-06 14:31:00,49.8,46.0,30.37,SSW,200,3.0,-999.0,88,-99.99,,,0.00,weatherlink.com 1.10,2013-01-06 14:31:00,
2013-01-06 14:46:00,49.9,47.0,30.37,SSW,194,1.0,-999.0,88,-99.99,,,0.00,weatherlink.com 1.10,2013-01-06 14:46:00,
2013-01-06 15:01:00,50.0,47.0,30.36,SSW,192,4.0,-999.0,88,-99.99,,,0.00,weatherlink.com 1.10,2013-01-06 15:01:00,
2013-01-06 15:16:00,49.9,47.0,30.36,South,182,4.0,-999.0,88,-99.99,,,0.00,weatherlink.com 1.10,2013-01-06 15:16:00,
2013-01-06 15:31:00,49.8,46.0,30.36,South,184,1.0,-999.0,88,-99.99,,,0.01,weatherlink.com 1.10,2013-01-06 15:31:00,
2013-01-06 15:46:00,49.8,46.0,30.35,South,184,4.0,-999.0,88,-99.99,,,0.01,weatherlink.com 1.10,2013-01-06 15:46:00,
2013-01-06 16:01:00,49.9,47.0,30.35,South,187,3.0,-999.0,88,-99.99,,,0.01,weatherlink.com 1.10,2013-01-06 16:01:00,
2013-01-06 16:17:00,49.9,47.0,30.35,South,189,6.0,-999.0,88,-99.99,,,0.01,weatherlink.com 1.10,2013-01-06 16:17:00,
2013-01-06 16:32:00,49.9,47.0,30.35,South,184,3.0,-999.0,88,-99.99,,,0.01,weatherlink.com 1.10,2013-01-06 16:32:00,
2013-01-06 16:47:00,49.9,47.0,30.34,South,186,5.0,-999.0,88,-99.99,,,0.01,weatherlink.com 1.10,2013-01-06 16:47:00,
2013-01-06 17:02:00,49.9,47.0,30.34,SSE,168,4.0,-999.0,88,-99.99,,,0.01,weatherlink.com 1.10,2013-01-06 17:02:00,
2013-01-06 17:17:00,49.9,47.0,30.33,South,180,6.0,-999.0,88,-99.99,,,0.01,weatherlink.com 1.10,2013-01-06 17:17:00,
2013-01-06 17:32:00,49.8,46.0,30.34,South,189,4.0,-999.0,88,-99.99,,,0.01,weatherlink.com 1.10,2013-01-06 17:32:00,
2013-01-06 17:47:00,49.7,46.0,30.33,SSW,194,6.0,-999.0,88,-99.99,,,0.01,weatherlink.com 1.10,2013-01-06 17:47:00,
2013-01-06 18:02:00,49.7,46.0,30.33,South,176,2.0,-999.0,88,-99.99,,,0.01,weatherlink.com 1.10,2013-01-06 18:02:00,
2013-01-06 18:17:00,49.7,46.0,30.33,South,178,3.0,-999.0,88,-99.99,,,0.01,weatherlink.com 1.10,2013-01-06 18:17:00,
2013-01-06 18:32:00,49.7,46.0,30.33,South,175,5.0,-999.0,88,-99.99,,,0.01,weatherlink.com 1.10,2013-01-06 18:32:00,
2013-01-06 18:47:00,49.8,46.0,30.33,South,191,6.0,-999.0,88,-99.99,,,0.01,weatherlink.com 1.10,2013-01-06 18:47:00,
2013-01-06 19:02:00,49.7,46.0,30.33,SSW,195,1.0,-999.0,88,-99.99,,,0.01,weatherlink.com 1.10,2013-01-06 19:02:00,
2013-01-06 19:17:00,49.7,46.0,30.33,South,190,3.0,-999.0,88,-99.99,,,0.02,weatherlink.com 1.10,2013-01-06 19:17:00,
2013-01-06 19:32:00,49.7,46.0,30.33,SSW,211,4.0,-999.0,88,-99.99,,,0.02,weatherlink.com 1.10,2013-01-06 19:32:00,
2013-01-06 19:47:00,49.6,46.0,30.33,SSW,196,7.0,-999.0,88,-99.99,,,0.02,weatherlink.com 1.10,2013-01-06 19:47:00,
2013-01-06 20:02:00,49.5,46.0,30.33,South,189,6.0,-999.0,88,-99.99,,,0.02,weatherlink.com 1.10,2013-01-06 20:02:00,
2013-01-06 20:17:00,49.5,46.0,30.33,South,181,5.0,-999.0,88,-99.99,,,0.02,weatherlink.com 1.10,2013-01-06 20:17:00,
2013-01-06 20:32:00,49.6,46.0,30.33,SSW,194,4.0,-999.0,88,-99.99,,,0.02,weatherlink.com 1.10,2013-01-06 20:32:00,
2013-01-06 20:47:00,49.6,46.0,30.33,South,189,5.0,-999.0,88,-99.99,,,0.02,weatherlink.com 1.10,2013-01-06 20:47:00,
2013-01-06 21:02:00,49.6,46.0,30.33,South,171,6.0,-999.0,88,-99.99,,,0.02,weatherlink.com 1.10,2013-01-06 21:02:00,
2013-01-06 21:17:00,49.7,46.0,30.33,South,186,6.0,-999.0,88,-99.99,,,0.02,weatherlink.com 1.10,2013-01-06 21:17:00,
2013-01-06 21:47:00,49.6,46.0,30.32,SSW,197,6.0,-999.0,88,-99.99,,,0.02,weatherlink.com 1.10,2013-01-06 21:47:00,
2013-01-06 22:02:00,49.5,46.0,30.32,SSW,208,6.0,-999.0,88,-99.99,,,0.02,weatherlink.com 1.10,2013-01-06 22:02:00,
2013-01-06 22:17:00,49.1,46.0,30.32,SSW,202,6.0,-999.0,88,-99.99,,,0.02,weatherlink.com 1.10,2013-01-06 22:17:00,
2013-01-06 22:32:00,49.1,46.0,30.32,SSW,205,5.0,-999.0,88,-99.99,,,0.02,weatherlink.com 1.10,2013-01-06 22:32:00,
2013-01-06 22:47:00,49.0,46.0,30.32,SSW,193,4.0,-999.0,88,-99.99,,,0.02,weatherlink.com 1.10,2013-01-06 22:47:00,
2013-01-06 23:02:00,49.0,46.0,30.31,SSW,213,5.0,-999.0,88,-99.99,,,0.02,weatherlink.com 1.10,2013-01-06 23:02:00,
2013-01-06 23:32:00,48.9,46.0,30.31,South,190,4.0,-999.0,88,-99.99,,,0.02,weatherlink.com 1.10,2013-01-06 23:32:00,
2013-01-06 23:47:00,49.0,46.0,30.31,South,188,6.0,-999.0,88,-99.99,,,0.02,weatherlink.com 1.10,2013-01-06 23:47:00,